IRIDIUM 33 DEB, 34492

Orbit data source: Space-Track

IRIDIUM 33 DEB, 34492 is space debris in LEO originally from a launch on Sun, 14 Sep 1997 UTC launched from the Tyuratam Missile And Space Complex (TTMTR). The debris from Iridium 33, an American commercial communications satellite, has been tracked extensively since its accidental collision with the defunct Russian satellite Cosmos 2251 in 2009. This event, occurring at high speed in low Earth orbit (LEO), generated thousands of pieces of space debris, significantly increasing the risk of further collisions. The Iridium 33 debris cloud has impacted space traffic management and orbital debris mitigation strategies, making it a subject of ongoing study in space situational awareness.

Loading next visibility...
Identifier
34492, 1997-051GH
Orbit
LEO
Country
Flag of USUS
Related business
Manufacturer
Unknown
Mission
Spacecraft
Bus & Motor
Unknown
Mass
Unknown
Launch date (UTC)
1997-09-14 (29 years ago)
Launch vehicle
Unknown
Launch site
Tyuratam Missile And Space Complex (TTMTR)
Object type
Payload
Rocket body
Debris
Shape & HBR
Unknown shape, 0.1 m
Radar Cross Section
Medium (>0.1 m² and <1 m²)

Expand to show TLE details & history
Last TLE update: 15 hours ago

TLE from 15 hours ago
0 IRIDIUM 33 DEB
1 34492U 97051GH  26169.24132764  .00003043  00000-0  10040-2 0  9994
2 34492  86.4698 258.5879 0177115 354.7083  32.6779 14.29265960877348
Epoch: 2026-06-18T05:47Z
TLE epoch observation values (Epoch: 2026-06-18T05:47:30.708Z)
Latitude
28.48861°
Longitude
-92.86928°
Altitude
691.548 km
Speed
7.568 km/s
True Right ascension
17h 21m 59s
True Declination
28° 20' 36"
Sunlit
Object was in full shadow at epoch
Visualization orbit readout
Latitude
Unknown
Longitude
Unknown
Altitude
Unknown
Speed
Unknown
Apparent Right ascension
Unknown
Apparent Declination
Unknown
Sunlit
N/A
Visualization observer readout
Local Sidereal Time
07:10:14
Azimuth
Unknown
Elevation
Unknown
Doppler factor
Unknown
Orbital elements
Apogee altitude
918.133 km
Perigee altitude
664.175 km
Semi-major axis
7,169.291 km
Eccentricity
0.01771
Inclination
86.4698°
RAAN
258.5879°
Arg. of periapsis
354.7083°
True anomaly
33.79443°
Mean anomaly
32.6779°
Eccentric anomaly
33.23407°
Mean motion
3.57543 °/min
Orbital period
100.69 mins
BSTAR
0.001004
Loading maneuver chart data...
Computing Atmospheric mass density...

Documentation

Showing up to 5 results
|